• In Germany
  • List of Countries
  • For 7 days
  • Water Temperature
  • Satellite Maps
  • Weather Map
  • Weather Widgets
  • user-avatar
    Login

    Hourly Weather Ibagué

    Today, 21 August, Monday

    Time Temperature Precipitation Wind Pressure Humidity
    00:00 +20°C° 0.1 mm 1 mps 649 mmHg 58%
    01:00 +20°C° 0.1 mm 1 mps 649 mmHg 57%
    02:00 +20°C° 0 mm 1 mps 649 mmHg 58%
    03:00 +20°C° 0 mm 1 mps 649 mmHg 58%
    04:00 +20°C° 0 mm 1 mps 649 mmHg 59%
    05:00 +20°C° 0 mm 1 mps 649 mmHg 60%
    06:00 +20°C° 0 mm 1 mps 650 mmHg 60%
    07:00 +21°C° 0 mm 1 mps 650 mmHg 61%
    08:00 +22°C° 0 mm 1 mps 651 mmHg 56%
    09:00 +24°C° 0 mm 2 mps 651 mmHg 51%
    10:00 +26°C° 0 mm 2 mps 652 mmHg 45%
    11:00 +28°C° 0 mm 2 mps 652 mmHg 42%
    12:00 +29°C° 0 mm 3 mps 651 mmHg 38%
    13:00 +30°C° 0 mm 3 mps 651 mmHg 35%
    14:00 +30°C° 0 mm 3 mps 651 mmHg 35%
    15:00 +30°C° 0 mm 3 mps 650 mmHg 35%
    16:00 +30°C° 0 mm 3 mps 649 mmHg 35%
    17:00 +27°C° 0.1 mm 3 mps 650 mmHg 40%
    18:00 +25°C° 0.1 mm 2 mps 650 mmHg 45%
    19:00 +23°C° 0.1 mm 2 mps 650 mmHg 51%
    20:00 +21°C° 0 mm 2 mps 650 mmHg 51%
    21:00 +22°C° 0 mm 1 mps 650 mmHg 50%
    22:00 +21°C° 0 mm 1 mps 651 mmHg 50%
    23:00 +21°C° 0 mm 1 mps 651 mmHg 51%

    Tomorrow, 22 August, Tuesday

    Time Temperature Precipitation Wind Pressure Humidity
    00:00 +21°C° 0 mm 1 mps 650 mmHg 51%
    01:00 +21°C° 0 mm 1 mps 650 mmHg 52%
    02:00 +20°C° 0 mm 1 mps 650 mmHg 52%
    03:00 +20°C° 0 mm 1 mps 649 mmHg 53%
    04:00 +20°C° 0 mm 1 mps 649 mmHg 53%
    05:00 +20°C° 0 mm 1 mps 650 mmHg 52%
    06:00 +21°C° 0 mm 1 mps 650 mmHg 51%
    07:00 +21°C° 0 mm 1 mps 650 mmHg 50%
    08:00 +24°C° 0 mm 2 mps 651 mmHg 44%
    09:00 +26°C° 0 mm 2 mps 652 mmHg 38%
    10:00 +28°C° 0 mm 3 mps 652 mmHg 33%
    11:00 +29°C° 0 mm 3 mps 652 mmHg 30%
    12:00 +31°C° 0 mm 3 mps 651 mmHg 27%
    13:00 +33°C° 0 mm 3 mps 651 mmHg 24%
    14:00 +33°C° 0 mm 3 mps 650 mmHg 24%
    15:00 +31°C° 0 mm 3 mps 650 mmHg 25%
    16:00 +31°C° 0 mm 2 mps 649 mmHg 25%
    17:00 +29°C° 0 mm 2 mps 649 mmHg 32%
    18:00 +26°C° 0 mm 2 mps 649 mmHg 38%
    19:00 +23°C° 0 mm 2 mps 649 mmHg 45%
    20:00 +23°C° 0 mm 2 mps 649 mmHg 44%
    21:00 +21°C° 0 mm 2 mps 650 mmHg 44%
    22:00 +20°C° 0 mm 2 mps 651 mmHg 44%
    23:00 +21°C° 0 mm 1 mps 650 mmHg 43%

    Day after tomorrow, 23 August, Wednesday

    Time Temperature Precipitation Wind Pressure Humidity
    00:00 +21°C° 0 mm 1 mps 650 mmHg 43%
    01:00 +20°C° 0 mm 1 mps 649 mmHg 43%
    02:00 +20°C° 0 mm 1 mps 649 mmHg 45%
    03:00 +20°C° 0 mm 1 mps 649 mmHg 46%
    04:00 +20°C° 0 mm 1 mps 648 mmHg 48%
    05:00 +20°C° 0 mm 1 mps 649 mmHg 48%
    06:00 +21°C° 0 mm 1 mps 649 mmHg 49%
    07:00 +21°C° 0 mm 1 mps 650 mmHg 49%
    08:00 +23°C° 0 mm 1 mps 650 mmHg 46%
    09:00 +25°C° 0 mm 2 mps 651 mmHg 42%
    10:00 +27°C° 0 mm 2 mps 651 mmHg 39%
    11:00 +28°C° 0 mm 2 mps 651 mmHg 37%
    12:00 +29°C° 0 mm 2 mps 650 mmHg 35%
    13:00 +30°C° 0 mm 2 mps 650 mmHg 34%
    14:00 +30°C° 0 mm 2 mps 649 mmHg 34%
    15:00 +30°C° 0 mm 2 mps 648 mmHg 34%
    16:00 +30°C° 0 mm 2 mps 648 mmHg 34%
    17:00 +27°C° 0 mm 2 mps 648 mmHg 40%
    18:00 +25°C° 0 mm 2 mps 648 mmHg 46%
    19:00 +23°C° 0 mm 2 mps 648 mmHg 52%
    20:00 +22°C° 0.2 mm 1 mps 649 mmHg 52%
    21:00 +22°C° 0.2 mm 1 mps 649 mmHg 52%
    22:00 +21°C° 0.2 mm 1 mps 649 mmHg 53%
    23:00 +21°C° 0.1 mm 1 mps 649 mmHg 53%

    24 August, Thursday

    Time Temperature Precipitation Wind Pressure Humidity
    00:00 +20°C° 0.1 mm 1 mps 649 mmHg 53%
    01:00 +20°C° 0.1 mm 1 mps 648 mmHg 52%
    02:00 +20°C° 0 mm 1 mps 648 mmHg 53%
    03:00 +20°C° 0 mm 1 mps 648 mmHg 54%
    04:00 +19°C° 0 mm 1 mps 648 mmHg 55%
    05:00 +20°C° 0 mm 1 mps 648 mmHg 54%
    06:00 +20°C° 0 mm 1 mps 649 mmHg 53%
    07:00 +21°C° 0 mm 1 mps 649 mmHg 52%
    08:00 +23°C° 0 mm 1 mps 650 mmHg 49%
    09:00 +24°C° 0 mm 1 mps 650 mmHg 45%
    10:00 +26°C° 0 mm 2 mps 651 mmHg 42%
    11:00 +27°C° 0 mm 2 mps 650 mmHg 41%
    12:00 +28°C° 0 mm 2 mps 650 mmHg 39%
    13:00 +29°C° 0 mm 2 mps 649 mmHg 38%
    14:00 +29°C° 0 mm 2 mps 649 mmHg 40%
    15:00 +28°C° 0 mm 2 mps 648 mmHg 41%
    16:00 +28°C° 0 mm 2 mps 648 mmHg 43%
    17:00 +26°C° 0.2 mm 1 mps 648 mmHg 47%
    18:00 +24°C° 0.2 mm 1 mps 648 mmHg 52%
    19:00 +22°C° 0.2 mm 1 mps 648 mmHg 57%
    20:00 +22°C° 0.3 mm 1 mps 649 mmHg 57%
    21:00 +21°C° 0.3 mm 1 mps 649 mmHg 58%
    22:00 +21°C° 0.3 mm 1 mps 649 mmHg 58%
    23:00 +21°C° 0 mm 1 mps 649 mmHg 58%

    25 August, Friday

    Time Temperature Precipitation Wind Pressure Humidity
    00:00 +20°C° 0 mm 1 mps 649 mmHg 58%
    01:00 +20°C° 0 mm 1 mps 648 mmHg 58%
    02:00 +20°C° 0 mm 1 mps 648 mmHg 58%
    03:00 +20°C° 0 mm 1 mps 648 mmHg 58%
    04:00 +19°C° 0 mm 1 mps 648 mmHg 58%
    05:00 +20°C° 0 mm 1 mps 649 mmHg 58%
    06:00 +20°C° 0 mm 1 mps 649 mmHg 57%
    07:00 +21°C° 0 mm 1 mps 650 mmHg 57%
    08:00 +22°C° 0 mm 1 mps 650 mmHg 53%
    09:00 +24°C° 0 mm 1 mps 651 mmHg 49%
    10:00 +25°C° 0 mm 2 mps 651 mmHg 45%
    11:00 +26°C° 0 mm 2 mps 651 mmHg 43%
    12:00 +27°C° 0 mm 2 mps 650 mmHg 41%
    13:00 +28°C° 0 mm 2 mps 649 mmHg 38%
    14:00 +28°C° 0 mm 2 mps 649 mmHg 39%
    15:00 +28°C° 0 mm 2 mps 649 mmHg 39%
    16:00 +28°C° 0 mm 1 mps 648 mmHg 39%
    17:00 +26°C° 0.1 mm 1 mps 649 mmHg 44%
    18:00 +24°C° 0.1 mm 1 mps 649 mmHg 50%
    19:00 +22°C° 0.1 mm 1 mps 649 mmHg 56%
    20:00 +22°C° 0.1 mm 1 mps 649 mmHg 55%
    21:00 +21°C° 0.1 mm 1 mps 650 mmHg 55%
    22:00 +21°C° 0.1 mm 1 mps 650 mmHg 54%
    23:00 +20°C° 0.1 mm 1 mps 650 mmHg 56%

    26 August, Saturday

    Time Temperature Precipitation Wind Pressure Humidity
    00:00 +20°C° 0.1 mm 1 mps 649 mmHg 57%
    01:00 +20°C° 0.1 mm 1 mps 649 mmHg 59%
    02:00 +19°C° 0.2 mm 1 mps 649 mmHg 63%
    03:00 +19°C° 0.2 mm 1 mps 648 mmHg 67%
    04:00 +18°C° 0.2 mm 1 mps 648 mmHg 71%
    05:00 +19°C° 0.1 mm 1 mps 649 mmHg 71%
    06:00 +19°C° 0.1 mm 1 mps 649 mmHg 71%
    07:00 +17°C° 0.1 mm 0 mps 649 mmHg 70%
    08:00 +22°C° 0 mm 1 mps 650 mmHg 63%
    09:00 +24°C° 0 mm 1 mps 650 mmHg 55%
    10:00 +26°C° 0 mm 2 mps 651 mmHg 47%
    11:00 +27°C° 0 mm 2 mps 650 mmHg 44%
    12:00 +28°C° 0 mm 2 mps 650 mmHg 42%
    13:00 +28°C° 0 mm 2 mps 649 mmHg 39%
    14:00 +28°C° 0 mm 2 mps 649 mmHg 40%
    15:00 +28°C° 0 mm 2 mps 649 mmHg 40%
    16:00 +28°C° 0 mm 2 mps 648 mmHg 40%
    17:00 +26°C° 0 mm 1 mps 648 mmHg 47%
    18:00 +24°C° 0 mm 1 mps 648 mmHg 54%
    19:00 +22°C° 0 mm 1 mps 648 mmHg 61%
    20:00 +22°C° 0 mm 1 mps 649 mmHg 60%
    21:00 +21°C° 0 mm 1 mps 649 mmHg 60%
    22:00 +21°C° 0 mm 1 mps 649 mmHg 60%
    23:00 +21°C° 0 mm 1 mps 649 mmHg 59%
    Show more